Location: Eastlake (historical)
(39.0077°N, 122.6678°W)
Time: 05:04:29
(UTC+00:00)

Okean 3 Rocket - Pass Details

Date: 25 November 2020
Orbit: 615 x 645 km, 82.5° (Epoch: 24 January)

Event Time Altitude Azimuth Distance (km) Brightness Sun altitude
Rises 13:17:35 0° 190° (S) 2,868 7.0 -20.6°
Reaches altitude 10° 13:19:48 10° 191° (SSW) 1,968 6.1 -20.1°
Maximum altitude 13:24:09 76° 277° (W) 638 3.4 -19.3°
Drops below altitude 10° 13:28:33 10° 4° (N) 1,990 6.1 -18.5°
Sets 13:30:48 0° 6° (N) 2,904 6.9 -18.1°
